Camarillo, CA

7:15 AM PDT on June 25, 2018 (GMT -0700)
Camarillo

Weather History for KCMA - October, 2017

Change the Weather History Date:

Wednesday, October 18, 2017

  Actual Average Record
Temperature  
Mean Temperature 70 °F 63 °F  
Max Temperature 81 °F 73 °F 91 °F (1942)
Min Temperature 59 °F 53 °F 37 °F (1938)
Degree Days  
Heating Degree Days 0 3  
Month to date heating degree days 10 43  
Since 1 July heating degree days 15 75  
Cooling Degree Days 5 1  
Month to date cooling degree days 62 18  
Year to date cooling degree days 751 301  
Growing Degree Days 20 (Base 50)    
Moisture  
Dew Point 56 °F    
Average Humidity 65    
Maximum Humidity 84    
Minimum Humidity 45    
Precipitation  
Precipitation 0.00 in 0.02 in 1.46 in (1936)
Month to date precipitation 0.00 0.26  
Year to date precipitation 14.80 11.48  
Sea Level Pressure  
Sea Level Pressure 29.94 in    
Wind  
Wind Speed 5 mph (SSE)    
Max Wind Speed 13 mph    
Max Gust Speed 15 mph    
Visibility 8 miles    
Events      
T = Trace of Precipitation, MM = Missing Value Source: NWS Daily Summary

Daily Weather History Graph

Daily Weather History Graph

Search for Another Location

Airport or City:

Astronomy

Oct. 18, 2017 Rise Set
Actual Time 7:04 AM PDT 6:17 PM PDT
Civil Twilight 6:38 AM PDT 6:43 PM PDT
Nautical Twilight 6:09 AM PDT 7:12 PM PDT
Astronomical Twilight 5:40 AM PDT 7:41 PM PDT
Moon 5:53 AM PDT (10/18) 6:06 PM PDT (10/18)
Length of Visible Light 12h 04m
Length of Day
11h 13m
Waning Crescent, 1% of the Moon is Illuminated
Oct 18
Waning Crescent
Oct 19
New
Oct 27
First Quarter
Nov 3
Full
Nov 10
Last Quarter

Hourly Weather History & Observations

Time (PDT) Temp. Heat Index Dew Point Humidity Pressure Visibility Wind Dir Wind Speed Gust Speed Precip Events Conditions
12:55 AM 66.0 °F - 55.0 °F 68% 29.93 in 9.0 mi Calm Calm - N/A   Clear
1:55 AM 63.0 °F - 54.0 °F 72% 29.94 in 9.0 mi NE 6.9 mph - N/A   Clear
2:55 AM 64.9 °F - 54.0 °F 68% 29.93 in 10.0 mi ENE 5.8 mph - N/A   Clear
3:55 AM 64.0 °F - 52.0 °F 65% 29.93 in 10.0 mi ENE 5.8 mph - N/A   Clear
4:55 AM 64.9 °F - 52.0 °F 63% 29.92 in 10.0 mi NE 4.6 mph - N/A   Clear
5:55 AM 61.0 °F - 51.1 °F 70% 29.94 in 9.0 mi ENE 4.6 mph - N/A   Clear
6:55 AM 59.0 °F - 51.1 °F 75% 29.94 in 9.0 mi Calm Calm - N/A   Clear
7:55 AM 63.0 °F - 52.0 °F 67% 29.96 in 8.0 mi Calm Calm - N/A   Clear
8:55 AM 68.0 °F - 53.1 °F 59% 29.97 in 7.0 mi ENE 3.5 mph - N/A   Clear
9:55 AM 75.9 °F - 55.9 °F 50% 29.98 in - North - - N/A   Unknown
10:55 AM 77.0 °F - 61.0 °F 58% 29.98 in 8.0 mi SSW 4.6 mph - N/A   Clear
11:55 AM 80.1 °F 80.6 °F 57.9 °F 47% 29.97 in 9.0 mi WSW 8.1 mph - N/A   Clear
12:55 PM 77.0 °F - 59.0 °F 54% 29.98 in 8.0 mi West 9.2 mph - N/A   Clear
1:55 PM 75.0 °F - 60.1 °F 60% 29.95 in 8.0 mi SW 8.1 mph - N/A   Clear
2:55 PM 75.0 °F - 60.1 °F 60% 29.93 in 8.0 mi SW 5.8 mph - N/A   Clear
3:55 PM 73.9 °F - 60.1 °F 62% 29.92 in 8.0 mi SSW 6.9 mph - N/A   Clear
4:55 PM 72.0 °F - 60.1 °F 66% 29.91 in 7.0 mi WSW 8.1 mph - N/A   Clear
5:55 PM 70.0 °F - 59.0 °F 68% 29.90 in 7.0 mi SW 5.8 mph - N/A   Clear
6:55 PM 66.9 °F - 57.9 °F 73% 29.91 in 8.0 mi WSW 5.8 mph - N/A   Clear
7:55 PM 64.9 °F - 57.9 °F 78% 29.91 in 8.0 mi SE 3.5 mph - N/A   Clear
8:55 PM 64.9 °F - 57.0 °F 75% 29.91 in 7.0 mi Calm Calm - N/A   Clear
9:55 PM 64.0 °F - 57.0 °F 78% 29.92 in 8.0 mi Calm Calm - N/A   Clear
10:55 PM 62.1 °F - 55.9 °F 80% 29.92 in 7.0 mi NE 3.5 mph - N/A   Clear
11:55 PM 60.1 °F - 55.0 °F 83% 29.92 in 7.0 mi NNE 3.5 mph - N/A   Clear